Mount Shasta, CA

10:11 AM PDT on July 25, 2016 (GMT -0700)
Mount Shasta

Weather History for KMHS - August, 2013

Change the Weather History Date:

Monday, August 5, 2013

  Actual Average Record
Temperature  
Mean Temperature 66 °F 68 °F  
Max Temperature 89 °F 87 °F 101 °F (1932)
Min Temperature 42 °F 50 °F 37 °F (2002)
Degree Days  
Heating Degree Days 0 1  
Month to date heating degree days 1 5  
Since 1 June heating degree days 88 180  
Since 1 July heating degree days 1 38  
Cooling Degree Days 1 4  
Month to date cooling degree days 7 20  
Year to date cooling degree days 338 188  
Since 1 June cooling degree days 329 180  
Growing Degree Days 17 (Base 50)    
Moisture  
Dew Point 34 °F    
Average Humidity 33    
Maximum Humidity 56    
Minimum Humidity 13    
Precipitation  
Precipitation 0.00 in 0.01 in 0.50 in (1974)
Month to date precipitation 0.00 0.05  
Year to date precipitation 7.18 27.04  
Sea Level Pressure  
Sea Level Pressure 30.04 in    
Wind  
Wind Speed 1 mph (ENE)    
Max Wind Speed 7 mph    
Max Gust Speed 17 mph    
Visibility 10 miles    
Events      
T = Trace of Precipitation, MM = Missing Value Source: NWS Daily Summary

Daily Weather History Graph

Daily Weather History Graph

Search for Another Location

Airport or City:

Trip Planner

Search our weather history database for the weather conditions in past years. The results will help you decide how hot, cold, wet, or windy it might be!

Date:

Astronomy

Aug. 05, 2013 Rise Set
Actual Time 6:08 AM PDT 8:21 PM PDT
Civil Twilight 5:38 AM PDT 8:51 PM PDT
Nautical Twilight 5:00 AM PDT 9:29 PM PDT
Astronomical Twilight 4:18 AM PDT 10:10 PM PDT
Moon 5:09 AM PDT (8/5) 7:24 PM PDT (8/5)
Length of Visible Light 15h 13m
Length of Day
14h 12m
Waning Crescent, 1% of the Moon is Illuminated
Aug 5
Waning Crescent
Aug 6
New
Aug 14
First Quarter
Aug 20
Full
Aug 28
Last Quarter

Hourly Weather History & Observations

Time (PDT) Temp. Windchill Dew Point Humidity Pressure Visibility Wind Dir Wind Speed Gust Speed Precip Events Conditions
12:56 AM 50.0 °F - 36.0 °F 59% 30.06 in 10.0 mi Calm Calm - N/A   Clear
1:56 AM 51.1 °F - 34.0 °F 52% 30.06 in 10.0 mi Calm Calm - N/A   Clear
2:56 AM 48.9 °F - 30.9 °F 50% 30.05 in 10.0 mi Calm Calm - N/A   Clear
3:56 AM 48.9 °F - 30.0 °F 48% 30.05 in 10.0 mi Calm Calm - N/A   Clear
4:56 AM 46.0 °F - 28.9 °F 51% 30.06 in 10.0 mi Calm Calm - N/A   Clear
6:56 AM 46.0 °F 44.8 °F 28.0 °F 50% 30.08 in 10.0 mi ENE 3.5 mph - N/A   Clear
8:56 AM 66.0 °F - 37.9 °F 36% 30.07 in 10.0 mi Calm Calm - N/A   Clear
9:56 AM 73.9 °F - 39.0 °F 28% 30.06 in 10.0 mi Calm Calm - N/A   Clear
10:56 AM 80.1 °F - 39.9 °F 24% 30.06 in 10.0 mi Calm Calm - N/A   Clear
11:56 AM 82.9 °F - 33.1 °F 17% 30.05 in 10.0 mi Variable 3.5 mph - N/A   Clear
12:56 PM 84.9 °F - 28.0 °F 13% 30.04 in 10.0 mi Calm Calm - N/A   Clear
1:56 PM 88.0 °F - 34.0 °F 15% 30.03 in 10.0 mi Variable 3.5 mph - N/A   Clear
2:56 PM 88.0 °F - 35.1 °F 15% 30.01 in 10.0 mi Calm Calm - N/A   Clear
3:56 PM 88.0 °F - 36.0 °F 16% 29.99 in 10.0 mi Variable 3.5 mph - N/A   Clear
4:56 PM 86.0 °F - 36.0 °F 17% 29.99 in 10.0 mi Calm Calm - N/A   Clear
6:56 PM 80.1 °F - 33.1 °F 18% 30.00 in 10.0 mi Calm Calm - N/A   Clear
7:56 PM 77.0 °F - 33.1 °F 20% 29.99 in 10.0 mi East 3.5 mph - N/A   Clear
8:56 PM 68.0 °F - 35.1 °F 30% 30.01 in 10.0 mi Calm Calm - N/A   Clear
9:56 PM 62.1 °F - 36.0 °F 38% 30.02 in 10.0 mi Calm Calm - N/A   Clear
10:56 PM 59.0 °F - 37.9 °F 46% 30.03 in 10.0 mi Calm Calm - N/A   Clear
11:56 PM 53.1 °F - 37.9 °F 57% 30.04 in 10.0 mi Calm Calm - N/A   Clear